Weather in Djelfa

Algeria     34°39′25″N   3°15′06″E
temp.,
°C
wind,
m/s
gust,
m/s
humid.,
%
clouds,
%
prec.,
mm/h
press.,
hPa
HPBL,
m
23 october, sat
sat2301:00+16s4745100 0.0 1016124
04:00+15wsw465099 0.0 1016115
07:00+12wnw467999 0.4 1017185
10:00+14nw566896 0.5 1019443
13:00+19nw454122 0.6 10161144
16:00+17ne124838 0.6 10161353
19:00+15sse126382 2.8 1018126
22:00+14nw356454 0.1 1019121
24 october, sun
sun2401:00+12wnw45715 0.1 1019113
04:00+11nw47851 0.0 1019209
07:00+10nnw699698 0.0 1021419
10:00+12nnw897865 0.1 1022740
13:00+15nnw885723 0.1 10201181
16:00+16nnw88450 0.0 10191440
19:00+13nnw58567 0.0 1021267
22:00+11nnw34690 0.0 1022103
25 october, mon
mon2501:00+9nw34740 0.0 102282
04:00+8nw35783 0.0 102275
07:00+8nnw33805 0.0 102238
10:00+12nw44720 0.0 1022384
13:00+16nnw44556 0.0 1020770
16:00+17n334837 0.0 10191063
19:00+14n335995 0.0 102062
22:00+12ne11685 0.0 102110
26 october, tue
tue2601:00+11se117486 0.0 102010
04:00+12sse1168100 0.0 102010
07:00+12s2264100 0.0 102010
10:00+16s234780 0.0 1020519
13:00+19w233193 0.0 10181470
16:00+19nw5429100 0.0 10171307
19:00+17n343498 0.0 1018156
22:00+16ne3444100 0.0 1020321
27 october, wed
wed2701:00+14e114986 0.0 101912
04:00+13sw115591 0.1 101810
07:00+12nnw225610 0.1 101812
10:00+16wnw454265 0.0 1020638
13:00+18nw443738 0.0 10181275
16:00+18nw443731 0.0 10161739
19:00+15n35494 0.0 1017104
22:00+15nne235298 0.0 1018156